Weather History for KBBW - October, 2013

Change the Weather History Date:

Thursday, October 17, 2013

  Actual Average Record
Temperature  
Mean Temperature 36 °F 49 °F  
Max Temperature 47 °F 63 °F 90 °F (1991)
Min Temperature 25 °F 36 °F 10 °F (1922)
Degree Days  
Heating Degree Days 29 16  
Month to date heating degree days 220 225  
Cooling Degree Days 0 0  
Month to date cooling degree days 0 2  
Year to date cooling degree days 814 764  
Moisture  
Dew Point 31 °F    
Average Humidity 73    
Maximum Humidity 92    
Minimum Humidity 53    
Precipitation  
Precipitation 0.00 in 0.06 in 0.72 in (1968)
Sea Level Pressure  
Sea Level Pressure 30.05 in    
Wind  
Wind Speed 12 mph (NNW)    
Max Wind Speed 25 mph    
Max Gust Speed 35 mph    
Visibility 10 miles    
Events      
T = Trace of Precipitation, MM = Missing Value Source: NWS Daily Summary

Daily Weather History Graph

Daily Weather History Graph

Search for Another Location

Airport or City:

Trip Planner

Search our weather history database for the weather conditions in past years. The results will help you decide how hot, cold, wet, or windy it might be!

Date:

Astronomy

Oct. 17, 2013 Rise Set
Actual Time 7:53 AM CDT 6:53 PM CDT
Civil Twilight 7:25 AM CDT 7:21 PM CDT
Nautical Twilight 6:52 AM CDT 7:54 PM CDT
Astronomical Twilight 6:20 AM CDT 8:26 PM CDT
Moon 6:09 PM CDT (10/17) 6:26 AM CDT (10/17)
Length of Visible Light 11h 56m
Length of Day
11h 00m
Waxing Gibbous, 98% of the Moon is Illuminated
Oct 17
Waxing Gibbous
Oct 18
Full
Oct 26
Last Quarter
Nov 3
New
Nov 9
First Quarter

Hourly Weather History & Observations

Time (CDT) Temp. Windchill Dew Point Humidity Pressure Visibility Wind Dir Wind Speed Gust Speed Precip Events Conditions
12:53 AM 33.1 °F - 30.9 °F 92% 29.96 in 10.0 mi Calm Calm - N/A   Clear
1:53 AM 33.1 °F - 30.9 °F 92% 29.96 in 10.0 mi Calm Calm - N/A   Clear
2:53 AM 37.0 °F - 30.9 °F 79% 29.94 in 10.0 mi Calm Calm - N/A   Clear
3:53 AM 37.0 °F 29.3 °F 30.9 °F 79% 29.93 in 10.0 mi NW 11.5 mph - N/A   Clear
4:53 AM 37.0 °F 29.8 °F 30.0 °F 76% 29.93 in 10.0 mi NW 10.4 mph - N/A   Clear
5:53 AM 37.0 °F 28.5 °F 28.0 °F 70% 29.95 in 10.0 mi NW 13.8 mph - N/A   Clear
6:53 AM 37.9 °F 29.6 °F 30.0 °F 73% 29.97 in 10.0 mi NW 13.8 mph 19.6 mph N/A   Clear
7:53 AM 39.0 °F 31.0 °F 32.0 °F 76% 30.00 in 10.0 mi NW 13.8 mph - N/A   Clear
8:53 AM 41.0 °F 32.8 °F 34.0 °F 76% 30.02 in 10.0 mi NW 16.1 mph 25.3 mph N/A   Clear
9:53 AM 42.1 °F 32.3 °F 37.0 °F 82% 30.06 in 10.0 mi NW 24.2 mph 34.5 mph N/A   Mostly Cloudy
10:53 AM 45.0 °F 36.6 °F 37.0 °F 74% 30.06 in 10.0 mi NNW 21.9 mph 31.1 mph N/A   Overcast
11:53 AM 44.1 °F 35.2 °F 36.0 °F 73% 30.08 in 10.0 mi NNW 23.0 mph 32.2 mph N/A   Overcast
12:53 PM 44.1 °F 35.4 °F 37.0 °F 76% 30.09 in 10.0 mi NW 21.9 mph 28.8 mph N/A   Overcast
1:53 PM 45.0 °F 36.4 °F 35.1 °F 68% 30.08 in 10.0 mi NNW 23.0 mph 33.4 mph N/A   Mostly Cloudy
2:53 PM 46.0 °F 39.0 °F 34.0 °F 63% 30.06 in 10.0 mi NNW 17.3 mph 28.8 mph N/A   Overcast
3:53 PM 45.0 °F 37.4 °F 32.0 °F 60% 30.06 in 10.0 mi NNW 18.4 mph 27.6 mph N/A   Overcast
4:53 PM 45.0 °F 38.2 °F 30.9 °F 58% 30.07 in 10.0 mi NNW 15.0 mph 21.9 mph N/A   Mostly Cloudy
5:53 PM 44.1 °F 38.1 °F 28.0 °F 53% 30.08 in 10.0 mi NNW 11.5 mph 19.6 mph N/A   Clear
6:53 PM 39.9 °F 33.9 °F 27.0 °F 60% 30.10 in 10.0 mi North 9.2 mph - N/A   Clear
7:53 PM 36.0 °F 30.3 °F 28.0 °F 73% 30.14 in 10.0 mi NNW 6.9 mph - N/A   Clear
8:53 PM 30.9 °F 25.2 °F 27.0 °F 85% 30.16 in 10.0 mi North 5.8 mph - N/A   Clear
9:53 PM 28.9 °F 23.9 °F 26.1 °F 89% 30.17 in 10.0 mi NNW 4.6 mph - N/A   Clear
10:53 PM 28.0 °F 24.2 °F 25.0 °F 88% 30.17 in 10.0 mi NNW 3.5 mph - N/A   Clear
11:53 PM 26.1 °F - 24.1 °F 92% 30.17 in 10.0 mi Calm Calm - N/A   Clear